{"data":{"norad_id":58190,"epoch":"2026-09-20T23:05:58.479360Z","epoch_age_seconds":100475,"freshness":"FRESH","line1":"1 58190U 23167R   26263.96248240  .00000334  00000+0  21658-4 0  9991","line2":"2 58190  43.0012 120.2463 0000903 276.1631  83.9118 15.27581612160859","mean_motion":15.27581612,"eccentricity":9.03e-5,"inclination_deg":43.0012,"raan_deg":120.2463,"arg_perigee_deg":276.1631,"mean_anomaly_deg":83.9118,"bstar":2.1658e-5,"rev_number":16085,"period_min":94.266649237461,"perigee_km":482.42470446738,"apogee_km":483.66383380459,"semimajor_km":6861.181269136,"source":"CELESTRAK","updated_at":"2026-09-21T09:00:33.828948Z"}}